Погода в Ишне

Россия / Ярославская область     57°11′32″N   39°21′22″E
темп.,
°C
ветер,
м/с
пор.,
м/с
влажн.,
%
обл.,
%
осадки,
мм/ч
давл.,
гПа
погр.,
м
20 мая, пт
пт2000:00+1сз410815 0.0 1015216
03:000ссз410914 0.0 1017292
06:00+2ссз49825 0.0 1018452
09:00+6ссв456438 0.0 10191100
12:00+9с344890 0.1 10182033
15:00+10с454293 0.1 10172074
18:00+9с44556 0.0 10171696
21:00+4ссз22680 0.0 101818
21 мая, сб
сб2100:00+2с22785 0.0 101711
03:000ссв12865 0.0 101610
06:00+2св22795 0.0 1016137
09:00+7св33645 0.0 1015887
12:00+9св335187 0.0 10131644
15:00+11всв444778 0.0 10111789
18:00+10всв335678 0.0 10111674
21:00+4всв227344 0.0 101119
22 мая, вс
вс2200:00+2всв22845 0.0 101021
03:00+1ссв33915 0.0 101039
06:00+3ссв35760 0.0 1009187
09:00+7ссв56511 0.0 10081288
12:00+10ссв564323 0.0 10071950
15:00+11ссв5742100 0.0 10062220
18:00+10ссз575499 0.0 10061068
21:00+5сз486548 0.0 1006122
23 мая, пн
пн2300:00+2ссз367746 0.0 100697
03:00+1сз35825 0.0 100684
06:00+4сз5117666 0.0 1006330
09:00+8ссз71051100 0.0 10051429
12:00+10ссз7947100 0.0 10051664
15:00+11ссз71046100 0.0 10051790
18:00+9ссз61149100 0.0 1005844
21:00+6ссз3359100 0.0 100658
24 мая, вт
вт2400:00+6сз51259100 0.0 1006438
03:00+5сз51158100 0.0 1007455
06:00+6ссз51066100 0.0 1008784
09:00+8ссз7956100 0.0 10091275
12:00+8с6866100 0.0 10111416
15:00+8с5768100 0.1 10121263
18:00+8ссв3671100 0.0 1014988
21:00+6ссв247494 0.0 1016103